Location: Arbon
(43.0005°N, 0.7472°E)
Time: 15:02:43
(UTC+00:00)

ISS - Visible Passes

Search period start: 09 December 2021 00:00
Search period end: 19 December 2021 00:00
Orbit: 417 x 423 km, 51.6° (Epoch: 09 December)

Date Brightness Start Highest point End Pass type
(mag) Time Alt. Az. Time Alt. Az. Time Alt. Az.
09 Dec -0.7 17:53:19 10° W 17:55:30 16° SW 17:57:41 10° S visible
10 Dec -1.3 17:05:22 10° WNW 17:08:16 26° SW 17:11:09 10° SSE visible
17 Dec -0.9 06:41:47 10° S 06:44:29 23° SE 06:47:12 10° E visible
18 Dec -0.5 05:55:26 10° SSE 05:57:14 14° SE 05:59:04 10° E visible
